Location: P�rn�nmaa
(61.1833°N, 23.0000°E)
Time: 19:25:13
(UTC+00:00)

Cosmos 1315 Rocket - Pass Details

Date: 08 December 2019
Orbit: 530 x 568 km, 81.2° (Epoch: 17 January)

Event Time Altitude Azimuth Distance (km) Brightness Sun altitude
Rises 14:23:03 0° 152° (SSE) 2,705 6.5 -7.0°
Reaches altitude 10° 14:25:36 10° 136° (SE) 1,824 5.4 -7.2°
Maximum altitude 14:28:34 20° 88° (E) 1,302 4.2 -7.5°
Drops below altitude 10° 14:31:36 10° 40° (NE) 1,853 4.9 -7.8°
Enters shadow 14:31:53 - 37° (NE) 1,943 5.0 -7.9°
